Regional Weather Roundup
Issued by NWS Cleveland, OH

Home | Current Version | Previous Version | Graphics & Text | Print | Product List | Glossary On
Versions: 1 2 3 4 5 6 7 8 9 10 11 12 13 14 15 16 17 18 19 20 21 22 23 24 25 26 27 28 29 30 31 32 33 34 35 36 37 38 39 40 41 42 43 44 45 46 47 48 49 50
000
ASUS41 KCLE 290302
RWRCLE
OHIO REGIONAL WEATHER ROUNDUP
NATIONAL WEATHER SERVICE CLEVELAND, OH
1000 PM EST FRI NOV 28 2014

NOTE: "FAIR" INDICATES FEW OR NO CLOUDS BELOW 12,000 FEET WITH NO
SIGNIFICANT WEATHER AND/OR OBSTRUCTIONS TO VISIBILITY.

OHZ001>008-015>018-024>027-034-035-043-044-290400-
   NORTHWEST OHIO

CITY           SKY/WX    TMP DP  RH WIND       PRES   REMARKS
DEFIANCE       MOCLDY    30  20  66 S7        30.08F WCI  23
FINDLAY        MOCLDY    31  21  66 S15       30.09F WCI  20
TOLEDO EXPRESS MOCLDY    28  22  78 S5        30.09F WCI  23
TOLEDO EXEC    CLOUDY    30  23  75 S7        30.11F WCI  23
LIMA           CLOUDY    32  20  61 S15       30.08F WCI  22
$$

OHZ009>014-019>023-028>033-038-089-290400-
   NORTHEAST OHIO

CITY           SKY/WX    TMP DP  RH WIND       PRES   REMARKS
CLE-HOPKINS    CLOUDY    27  20  75 S10       30.17F WCI  17
CLE-LAKEFRONT  CLOUDY    29  20  69 SE12      30.15F WCI  19
CUY CO. ARPT   CLOUDY    28  25  86 S9        30.17S WCI  20
LORAIN-ELYRIA  CLOUDY    27  21  78 S10       30.14F WCI  17
ASHTABULA      LGT SNOW  24  19  81 S7        30.18F WCI  16
AKRON-CANTON   CLOUDY    27  18  69 S9        30.14F WCI  18
WOOSTER        CLOUDY    27  19  72 S10       30.14F WCI  17
MANSFIELD      CLOUDY    28  19  69 S16       30.10F WCI  16
YOUNGSTOWN     FLURRIES  25  20  81 SE6       30.16F WCI  18
$$

OHZ042-051>053-060>062-070>072-077>081-290400-
  SOUTHWEST OHIO

CITY           SKY/WX    TMP DP  RH WIND       PRES   REMARKS
CINC-COVINGTON MOCLDY    33  17  51 SE6       30.10F WCI  28
CINC-LUNKEN    MOCLDY    33  17  51 CALM      30.14F
HAMILTON       CLOUDY    34  18  52 SE3       30.14F
DAYTON         CLOUDY    32  18  56 S10       30.12R WCI  24
WRIGHT-PAT AFB MOCLDY    31  18  58 S7        30.13S WCI  25
DAYTON GENERAL MOCLDY    30  19  63 S7        30.11S WCI  23
WILMINGTON     MOCLDY    29  18  63 S7        30.12F WCI  22
$$

OHZ036-037-039>041-045>050-054>059-063>069-073>076-082>088-290400-
  CENTRAL AND SOUTHEAST OHIO

CITY           SKY/WX    TMP DP  RH WIND       PRES   REMARKS
COLUMBUS       CLOUDY    31  17  56 SE9       30.14F WCI  23
OSU AIRPORT    CLOUDY    31  17  56 S10       30.13F WCI  22
BOLTON FIELD   NOT AVBL
RICKENBACK AFB CLOUDY    30  20  65 SE6       30.15F WCI  24
NEWARK         CLOUDY    31  17  56 S6        30.15F WCI  25
MARION         CLOUDY    30  19  63 S14       30.11F WCI  19
LANCASTER      CLOUDY    31  18  58 SE10      30.16F WCI  22
ZANESVILLE     CLOUDY    29  18  63 S8        30.18F WCI  21
NEW PHILLY     CLOUDY    29  19  66 SE7       30.18F WCI  22
$$



USA.gov is the U.S. government's official web portal to all federal, state and local government web resources and services.